カタログに戻る

STARLINK-2266

運用中通信VLEO
NORAD 47997·PAYLOAD·🇺🇸 United States

打ち上げ Mar 24, 2021 から Cape Canaveral Space Force Station

Loading…

次のパス (今後24時間)

TLE

最新Source: CelesTrak SupGP

元期: Sep 14, 2026, 20:09 UTC

1 47997C 21024W   26257.84006944 -.00026839  00000+0 -86325-3 0  2575
2 47997  53.1583 146.5067 0001409  96.8067  51.9952 15.31708650    10

AllMySatでSTARLINK-2266をリアルタイム追跡

Download on the App Store